Weather History for KATS - December, 2012

Change the Weather History Date:

Monday, December 31, 2012

  Actual Average Record
Temperature  
Mean Temperature 40 °F -  
Max Temperature 53 °F 56 °F 78 °F (1951)
Min Temperature 28 °F 20 °F -4 °F (1969)
Degree Days  
Heating Degree Days 24    
Moisture  
Dew Point 28 °F    
Average Humidity 70    
Maximum Humidity 100    
Minimum Humidity 30    
Precipitation  
Precipitation 0.00 in - - ()
Sea Level Pressure  
Sea Level Pressure 29.95 in    
Wind  
Wind Speed 12 mph (SW)    
Max Wind Speed 36 mph    
Max Gust Speed 43 mph    
Visibility 8 miles    
Events Fog , Rain    
Averages and records for this station are not official NWS values.
T = Trace of Precipitation, MM = Missing Value Source: NWS Daily Summary

Daily Weather History Graph

Daily Weather History Graph

Search for Another Location

Airport or City:

Trip Planner

Search our weather history database for the weather conditions in past years. The results will help you decide how hot, cold, wet, or windy it might be!

Date:

Astronomy

Dec. 31, 2012 Rise Set
Actual Time 7:00 AM MST 5:02 PM MST
Civil Twilight 6:33 AM MST 5:29 PM MST
Nautical Twilight 6:02 AM MST 6:00 PM MST
Astronomical Twilight 5:32 AM MST 6:30 PM MST
Moon 8:23 PM MST (12/31) 8:53 AM MST (12/31)
Length of Visible Light 10h 56m
Length of Day
10h 01m
Waning Gibbous, 90% of the Moon is Illuminated
Dec 31
Waning Gibbous
Jan 4
Last Quarter
Jan 11
New
Jan 18
First Quarter
Jan 26
Full

Hourly Weather History & Observations

Time (MST) Temp. Windchill Dew Point Humidity Pressure Visibility Wind Dir Wind Speed Gust Speed Precip Events Conditions
12:15 AM 32.0 °F 24.8 °F 32.0 °F 100% 29.93 in 10.0 mi SSE 8.1 mph - N/A   Scattered Clouds
12:35 AM 32.0 °F 24.8 °F 32.0 °F 100% 29.92 in 10.0 mi SSE 8.1 mph - N/A   Mostly Cloudy
12:55 AM 32.0 °F 22.5 °F 32.0 °F 100% 29.90 in 10.0 mi SE 12.7 mph - N/A   Mostly Cloudy
1:15 AM 32.0 °F 27.5 °F 32.0 °F 100% 29.92 in 10.0 mi South 4.6 mph - N/A   Mostly Cloudy
1:35 AM 32.0 °F 25.6 °F 32.0 °F 100% 29.92 in 10.0 mi SSW 6.9 mph - N/A   Overcast
1:55 AM 32.0 °F 25.6 °F 32.0 °F 100% 29.92 in 10.0 mi South 6.9 mph - N/A   Overcast
2:15 AM 32.0 °F 25.6 °F 32.0 °F 100% 29.92 in 7.0 mi South 6.9 mph - N/A   Overcast
2:35 AM 32.0 °F 24.2 °F 32.0 °F 100% 29.91 in 5.0 mi SSE 9.2 mph - N/A   Mostly Cloudy
2:55 AM 32.0 °F 25.6 °F 32.0 °F 100% 29.91 in 4.0 mi SE 6.9 mph - N/A   Mostly Cloudy
3:15 AM 32.0 °F 25.6 °F 32.0 °F 100% 29.91 in 5.0 mi SSE 6.9 mph - N/A   Overcast
3:35 AM 32.0 °F 24.8 °F 32.0 °F 100% 29.91 in 5.0 mi SE 8.1 mph - N/A   Overcast
3:55 AM 32.0 °F 28.7 °F 32.0 °F 100% 29.91 in 5.0 mi SE 3.5 mph - N/A   Overcast
4:15 AM 32.0 °F 27.5 °F 32.0 °F 100% 29.91 in 1.2 mi South 4.6 mph - N/A   Overcast
4:35 AM 32.0 °F 28.7 °F 32.0 °F 100% 29.91 in 0.2 mi SSE 3.5 mph - N/A Fog Fog
4:55 AM 32.0 °F 25.6 °F 32.0 °F 100% 29.91 in 0.2 mi SSE 6.9 mph - N/A Fog Fog
5:15 AM 32.0 °F 24.2 °F 32.0 °F 100% 29.91 in 0.2 mi South 9.2 mph - N/A Fog Light Freezing Fog
5:35 AM 32.0 °F 25.6 °F 32.0 °F 100% 29.91 in 0.2 mi South 6.9 mph - N/A Fog Light Freezing Fog
5:55 AM 30.2 °F 25.4 °F 30.2 °F 100% 29.92 in 0.2 mi SSW 4.6 mph - N/A Fog Light Freezing Fog
6:15 AM 30.2 °F - 30.2 °F 100% 29.93 in 0.2 mi Calm Calm - N/A Fog Light Freezing Fog
6:35 AM 30.2 °F 24.3 °F 30.2 °F 100% 29.94 in 0.2 mi SE 5.8 mph - N/A Fog Light Freezing Fog
6:55 AM 28.4 °F 22.2 °F 28.4 °F 100% 29.94 in 0.2 mi SE 5.8 mph - N/A Fog Light Freezing Fog
7:15 AM 30.2 °F 22.6 °F 30.2 °F 100% 29.94 in 4.0 mi SSE 8.1 mph - N/A   Scattered Clouds
7:35 AM 32.0 °F 26.4 °F 32.0 °F 100% 29.94 in 8.0 mi NE 5.8 mph - N/A   Clear
7:55 AM 32.0 °F 25.6 °F 32.0 °F 100% 29.95 in 10.0 mi SSE 6.9 mph - N/A Rain Light Rain
8:15 AM 37.4 °F 32.8 °F 35.6 °F 93% 29.96 in 10.0 mi SSW 5.8 mph - N/A   Clear
8:35 AM 39.2 °F 32.0 °F 33.8 °F 81% 29.96 in 10.0 mi SSW 11.5 mph 18.4 mph N/A   Clear
8:55 AM 41.0 °F 33.1 °F 32.0 °F 70% 29.97 in 10.0 mi SSW 15.0 mph 21.9 mph N/A   Clear
9:15 AM 44.6 °F 35.9 °F 32.0 °F 61% 29.98 in 10.0 mi SW 23.0 mph 28.8 mph N/A   Clear
9:35 AM 44.6 °F 37.2 °F 32.0 °F 61% 29.98 in 10.0 mi SW 17.3 mph 27.6 mph N/A   Clear
9:55 AM 46.4 °F 38.1 °F 32.0 °F 57% 29.97 in 10.0 mi WSW 24.2 mph 31.1 mph N/A   Clear
10:15 AM 46.4 °F 37.9 °F 30.2 °F 53% 29.96 in 10.0 mi WSW 25.3 mph 34.5 mph N/A   Clear
10:35 AM 48.2 °F - 30.2 °F 50% 29.94 in 10.0 mi WSW 35.7 mph 42.6 mph N/A   Clear
10:55 AM 48.2 °F - 28.4 °F 46% 29.94 in 10.0 mi WSW 32.2 mph 42.6 mph N/A   Clear
11:15 AM 48.2 °F - 28.4 °F 46% 29.93 in 10.0 mi WSW 32.2 mph 42.6 mph N/A   Clear
11:35 AM 48.2 °F - 28.4 °F 46% 29.93 in 10.0 mi WSW 34.5 mph 40.3 mph N/A   Clear
11:55 AM 50.0 °F - 28.4 °F 43% 29.92 in 10.0 mi West 28.8 mph 40.3 mph N/A   Clear
12:15 PM 50.0 °F - 28.4 °F 43% 29.92 in 10.0 mi WSW 28.8 mph 38.0 mph N/A   Clear
12:35 PM 50.0 °F - 26.6 °F 40% 29.92 in 10.0 mi WSW 26.5 mph 33.4 mph N/A   Clear
12:55 PM 50.0 °F - 26.6 °F 40% 29.92 in 10.0 mi WSW 25.3 mph 32.2 mph N/A   Clear
1:15 PM 50.0 °F - 26.6 °F 40% 29.92 in 10.0 mi WSW 23.0 mph 29.9 mph N/A   Clear
1:35 PM 51.8 °F - 26.6 °F 38% 29.91 in 10.0 mi WSW 19.6 mph 25.3 mph N/A   Clear
1:55 PM 51.8 °F - 24.8 °F 35% 29.91 in 10.0 mi SW 21.9 mph 28.8 mph N/A   Clear
2:15 PM 53.6 °F - 24.8 °F 33% 29.91 in 10.0 mi WSW 23.0 mph 28.8 mph N/A   Clear
2:35 PM 53.6 °F - 23.0 °F 30% 29.91 in 10.0 mi WSW 24.2 mph 29.9 mph N/A   Clear
2:55 PM 51.8 °F - 23.0 °F 33% 29.92 in 10.0 mi WSW 23.0 mph 31.1 mph N/A   Clear
3:15 PM 51.8 °F - 23.0 °F 33% 29.93 in 10.0 mi WSW 20.7 mph 25.3 mph N/A   Clear
3:35 PM 51.8 °F - 21.2 °F 30% 29.94 in 10.0 mi WSW 17.3 mph - N/A   Clear
3:55 PM 50.0 °F - 23.0 °F 35% 29.95 in 10.0 mi WSW 19.6 mph 26.5 mph N/A   Clear
4:15 PM 50.0 °F - 23.0 °F 35% 29.95 in 10.0 mi West 15.0 mph - N/A   Partly Cloudy
4:35 PM 48.2 °F - 21.2 °F 34% 29.96 in 10.0 mi West 12.7 mph - N/A   Scattered Clouds
5:15 PM 44.6 °F 39.7 °F 24.8 °F 46% 29.98 in 10.0 mi WSW 9.2 mph - N/A   Clear
5:35 PM 42.8 °F 38.0 °F 24.8 °F 49% 29.99 in 10.0 mi WSW 8.1 mph - N/A   Clear
5:55 PM 41.0 °F 35.2 °F 24.8 °F 53% 29.99 in 10.0 mi WSW 9.2 mph - N/A   Clear
6:35 PM 39.2 °F 32.0 °F 24.8 °F 56% 30.00 in 10.0 mi West 11.5 mph - N/A   Clear
6:55 PM 39.2 °F 31.6 °F 24.8 °F 56% 29.99 in 10.0 mi West 12.7 mph - N/A   Scattered Clouds
7:35 PM 37.4 °F 30.8 °F 24.8 °F 60% 30.01 in 10.0 mi WSW 9.2 mph - N/A   Mostly Cloudy
8:35 PM 35.6 °F 28.0 °F 24.8 °F 65% 30.02 in 10.0 mi SSW 10.4 mph - N/A   Clear
8:55 PM 32.0 °F 24.8 °F 24.8 °F 75% 30.03 in 10.0 mi SSW 8.1 mph - N/A   Clear
9:15 PM 32.0 °F 24.2 °F 24.8 °F 75% 30.03 in 10.0 mi SW 9.2 mph - N/A   Clear
9:35 PM 32.0 °F 23.0 °F 24.8 °F 75% 30.04 in 10.0 mi West 11.5 mph - N/A   Clear
9:55 PM 37.4 °F 28.5 °F 24.8 °F 60% 30.04 in 10.0 mi West 15.0 mph 21.9 mph N/A   Clear
10:15 PM 37.4 °F 29.3 °F 24.8 °F 60% 30.03 in 10.0 mi WSW 12.7 mph - N/A   Clear
10:35 PM 35.6 °F 28.0 °F 24.8 °F 65% 30.04 in 10.0 mi West 10.4 mph - N/A   Clear
10:55 PM 35.6 °F 25.9 °F 24.8 °F 65% 30.04 in 10.0 mi WSW 16.1 mph - N/A   Clear
11:15 PM 35.6 °F 25.9 °F 24.8 °F 65% 30.04 in 10.0 mi WSW 16.1 mph - N/A   Clear
11:35 PM 35.6 °F 25.5 °F 24.8 °F 65% 30.04 in 10.0 mi WSW 17.3 mph - N/A   Clear
11:55 PM 35.6 °F 26.2 °F 24.8 °F 65% 30.05 in 10.0 mi WSW 15.0 mph - N/A   Clear